Aérodrome :
LOGIN :

S'inscrire | Disclaimer

   EN    FR    IT 

 










Légende :    VFR   VFR Marginal   IFR   IFR Intensif   IFR Très Intensif
Visi : 
Plafond : 
>= 8 km
>= 3000ft
5 à 8 km
1000 à 3000 ft
1500m à 5 km
500 à 1000 ft
800 à 1500m
200 à 500 ft
< 800m
< 200 ft
Symboles :   Orages  Brouillard  Fortes neiges  Fortes précipitations  Vent > 20 kt
SIGMETs :   Divers  Orages  Givrage  Turbulence  Onde Orograph.  Cendres Volcan.







- Altitude de l'aérodrome : 1106 ft
- Voir les cartes d'approche


LFSO - Nancy / Ochey

DERNIER METAR :
  • 240030Z AUTO 11003KT 4300 RA BR FEW013/// BKN026/// BKN034/// ///TCU 14/14 Q1012

METARs EXPIRÉS :
  • 240000Z AUTO 12002KT 5000 -RA BR BKN034/// OVC042/// ///TCU 15/14 Q1013
  • 232330Z AUTO 13002KT 9999 OVC044/// ///TCU 15/13 Q1013
  • 232300Z AUTO 14003KT 9999 BKN047/// BKN056/// OVC070/// ///TCU 15/13 Q1014
  • 232230Z AUTO 19003KT 150V210 9999 -RA ///TCU 15/13 Q1014
  • 232200Z AUTO 22004KT 9999 -RA ///TCU 15/13 Q1015

Prévision TAF périmée.
Pas de NOTAMs connus pour ce terrain.



MET'MAP, la Météo Aéronautique d'un coup d'oeil ! - Copyright ORBIFLY Décembre 2007 - Disclaimer

ORBIFLY MET'MAP TEAM :

Programmation & Développement : Alexandra Zaïnal
Conception & Développement : Baudouin d'Aumeries
Co-Programmation & Développement : Marc-Olivier Méhu
Soutien technique & logistique : Manuel Goepfert

Contact : metmap@orbifly.com




SOURCES & CREDITS :

   NOAA